Location: Albany
(35.0000°S, 118.0000°E)
Time: 22:56:17
(UTC-05:00)

Transit 2A - Visible Passes

Search period start: 05 March 2015 00:00
Search period end: 15 March 2015 01:00
Orbit: 592 x 970 km, 66.7° (Epoch: 04 March)

Date Brightness Start Highest point End Pass type
(mag) Time Alt. Az. Time Alt. Az. Time Alt. Az.
08 Mar 7.1 17:36:23 10° N 17:41:14 45° ENE 17:45:43 10° SE visible
09 Mar 7.8 17:03:13 10° N 17:07:32 29° ENE 17:11:38 10° SE visible
10 Mar 8.4 16:30:29 10° NNE 16:33:51 19° ENE 16:37:13 10° ESE visible
11 Mar 8.7 15:58:43 10° NE 16:00:11 11° ENE 16:01:56 10° E visible
12 Mar 5.8 17:04:18 10° NNW 17:09:20 83° ENE 17:13:57 10° SSE visible
13 Mar 6.5 16:31:10 12° N 16:35:37 52° ENE 16:40:08 10° SE visible
14 Mar 7.3 15:59:29 21° NNE 16:01:55 33° ENE 16:06:06 10° SE visible
14 Mar 7.0 17:41:13 10° WNW 17:45:08 23° SW 17:48:45 10° S visible
